Weather History for McComb, MS

Change the Weather History Date:

Monday, April 1, 2013

  Actual Average Record
Temperature  
Mean Temperature 64 °F -  
Max Temperature 75 °F 76 °F 85 °F (1966)
Min Temperature 52 °F 48 °F 29 °F (1987)
Degree Days  
Heating Degree Days 1    
Growing Degree Days 14 (Base 50)    
Moisture  
Dew Point 53 °F    
Average Humidity 83    
Maximum Humidity 100    
Minimum Humidity 34    
Precipitation  
Precipitation 0.01 in - - ()
Sea Level Pressure  
Sea Level Pressure 30.02 in    
Wind  
Wind Speed 2 mph (NNW)    
Max Wind Speed 8 mph    
Max Gust Speed -    
Visibility 7 miles    
Events Fog    
Averages and records for this station are not official NWS values.
T = Trace of Precipitation, MM = Missing Value Source: NWS Daily Summary

Daily Weather History Graph

Daily Weather History Graph

Search for Another Location

Airport:

Trip Planner

Search our weather history database for the weather conditions in past years. The results will help you decide how hot, cold, wet, or windy it might be!

Date:

Astronomy

Apr. 01, 2013 Rise Set
Actual Time 6:50 AM CDT 7:21 PM CDT
Civil Twilight 6:25 AM CDT 7:45 PM CDT
Nautical Twilight 5:57 AM CDT 8:14 PM CDT
Astronomical Twilight 5:28 AM CDT 8:43 PM CDT
Moon 12:13 AM CDT (4/1) 10:53 AM CDT (4/1)
Length of Visible Light 13h 19m
Length of Day
12h 31m
Waning Gibbous, 67% of the Moon is Illuminated
Apr 1
Waning Gibbous
Apr 2
Last Quarter
Apr 10
New
Apr 18
First Quarter
Apr 25
Full

Hourly Weather History & Observations

Time (CDT) Temp. Dew Point Humidity Pressure Visibility Wind Dir Wind Speed Gust Speed Precip Events Conditions
12:53 AM 55.0 °F 55.0 °F 100% 29.96 in 9.0 mi Calm Calm - N/A   Partly Cloudy
12:57 AM 55.4 °F 53.6 °F 94% 29.96 in 1.8 mi Calm Calm - N/A   Partly Cloudy
1:00 AM 53.6 °F 53.6 °F 100% 29.96 in 0.8 mi Calm Calm - N/A   Mist
1:17 AM 53.6 °F 53.6 °F 100% 29.96 in 2.0 mi Calm Calm - N/A   Mostly Cloudy
1:24 AM 53.6 °F 53.6 °F 100% 29.96 in 6.0 mi Calm Calm - N/A   Mostly Cloudy
1:29 AM 53.6 °F 53.6 °F 100% 29.96 in 1.8 mi Calm Calm - N/A   Mostly Cloudy
1:49 AM 53.6 °F 53.6 °F 100% 29.96 in 1.5 mi NNW 3.5 mph - 0.01 in   Scattered Clouds
1:53 AM 53.1 °F 53.1 °F 100% 29.95 in 2.5 mi NNW 4.6 mph - 0.01 in   Scattered Clouds
2:01 AM 53.6 °F 53.6 °F 100% 29.96 in 9.0 mi NNW 4.6 mph - N/A   Partly Cloudy
2:53 AM 57.0 °F 57.0 °F 100% 29.94 in 10.0 mi NNW 6.9 mph - N/A   Partly Cloudy
3:44 AM 55.4 °F 55.4 °F 100% 29.96 in 10.0 mi NNW 5.8 mph - N/A   Mostly Cloudy
3:53 AM 55.9 °F 55.9 °F 100% 29.96 in 9.0 mi NNW 5.8 mph - N/A   Mostly Cloudy
4:53 AM 55.9 °F 55.9 °F 100% 29.97 in 4.0 mi North 5.8 mph - N/A   Overcast
5:53 AM 55.0 °F 55.0 °F 100% 29.99 in 7.0 mi North 3.5 mph - N/A   Overcast
6:28 AM 55.4 °F 53.6 °F 94% 30.02 in 1.8 mi North 3.5 mph - N/A   Overcast
6:41 AM 55.4 °F 55.4 °F 100% 30.03 in 0.5 mi Calm Calm - N/A Fog Fog
6:53 AM 54.0 °F 54.0 °F 100% 30.03 in 0.5 mi Calm Calm - N/A Fog Fog
7:05 AM 55.4 °F 55.4 °F 100% 30.04 in 0.2 mi Calm Calm - N/A Fog Fog
7:53 AM 55.0 °F 55.0 °F 100% 30.06 in 0.2 mi Calm Calm - N/A Fog Fog
8:53 AM 55.9 °F 55.9 °F 100% 30.08 in 0.5 mi Calm Calm - N/A Fog Fog
9:01 AM 55.4 °F 55.4 °F 100% 30.08 in 2.0 mi Calm Calm - N/A   Overcast
9:11 AM 55.4 °F 55.4 °F 100% 30.09 in 4.0 mi Calm Calm - N/A   Overcast
10:05 AM 60.8 °F 55.4 °F 82% 30.10 in 10.0 mi North 3.5 mph - N/A   Scattered Clouds
10:31 AM 62.6 °F 55.4 °F 77% 30.10 in 10.0 mi NW 6.9 mph - N/A   Mostly Cloudy
10:46 AM 64.4 °F 55.4 °F 73% 30.10 in 10.0 mi North 6.9 mph - N/A   Overcast
10:53 AM 64.0 °F 55.9 °F 75% 30.10 in 10.0 mi NNW 8.1 mph - N/A   Overcast
11:53 AM 66.9 °F 55.0 °F 66% 30.09 in 10.0 mi NNW 6.9 mph - N/A   Mostly Cloudy
12:06 PM 68.0 °F 53.6 °F 60% 30.10 in 10.0 mi North 6.9 mph - N/A   Partly Cloudy
12:53 PM 69.1 °F 53.1 °F 57% 30.08 in 10.0 mi East 5.8 mph - N/A   Partly Cloudy
1:53 PM 71.1 °F 52.0 °F 51% 30.06 in 10.0 mi Variable 4.6 mph - N/A   Clear
2:53 PM 73.0 °F 48.0 °F 41% 30.03 in 10.0 mi ENE 6.9 mph - N/A   Clear
3:53 PM 75.0 °F 46.0 °F 36% 30.02 in 10.0 mi Variable 3.5 mph - N/A   Clear
4:53 PM 75.0 °F 48.0 °F 38% 30.00 in 10.0 mi Variable 4.6 mph - N/A   Clear
5:53 PM 75.0 °F 45.0 °F 34% 30.01 in 10.0 mi Variable 3.5 mph - N/A   Clear
6:53 PM 73.0 °F 48.0 °F 41% 30.01 in 10.0 mi Calm Calm - N/A   Clear
7:53 PM 64.9 °F 52.0 °F 63% 30.01 in 10.0 mi Calm Calm - N/A   Clear
8:53 PM 57.9 °F 52.0 °F 81% 30.03 in 10.0 mi Calm Calm - N/A   Clear
9:53 PM 55.9 °F 51.1 °F 84% 30.05 in 10.0 mi Calm Calm - N/A   Clear
10:53 PM 54.0 °F 50.0 °F 86% 30.06 in 10.0 mi Calm Calm - N/A   Clear
11:53 PM 52.0 °F 48.9 °F 89% 30.06 in 10.0 mi Calm Calm - N/A   Clear